INMARSAT 3-F2

Last updated on Thu Oct 30 2025 00:02:47 GMT+0000 (Coordinated Universal Time)

1 24307U 96053A 25302.04726916 .00000101 00000+0 00000+0 0 9996 2 24307 9.3324 56.2378 0006536 160.0453 220.3538 0.99993478106614
UTC large
Height (km)
Speed (km/s)
/
Latitude / Longitude
Inclination (degrees)
Orbital Period (minutes)
Azimuth
Elevation
Range (km)
Doppler Factor

Next 0 passes for location: London (51.5072 / 0.1276)

Sorry there are no passes over London.